Location: Del Amo
(33.8464°N, 118.2104°W)
Time: 03:17:00
(UTC+00:00)

Vanguard 2 Rocket - Pass Details

Date: 21 September 2024
Orbit: 553 x 3299 km, 32.9° (Epoch: 05 October)

Event Time Altitude Azimuth Distance (km) Brightness Sun altitude
Rises 13:33:31 0° 283° (WNW) 5,563 - -2.3°
Exits shadow 13:33:50 - 282° (WNW) 5,496 10.2 -2.3°
Reaches altitude 10° 13:36:53 10° 277° (W) 4,882 10.0 -1.6°
Maximum altitude 13:50:59 46° 210° (SSW) 3,691 9.8 1.3°
Drops below altitude 10° 14:09:26 10° 145° (SE) 6,222 11.8 5.1°
Sets 14:14:29 0° 140° (SE) 7,146 12.2 6.2°
